Regional Weather Roundup
Issued by NWS

Home | Current Version | Previous Version | Graphics & Text | Print | Product List | Glossary On
Versions: 1 2 3 4 5 6 7 8 9 10 11 12 13 14 15 16 17 18 19 20 21 22 23 24 25 26 27
000
ASUS45 KTFX 230210
RWRMT
MONTANA REGIONAL WEATHER ROUNDUP
NATIONAL WEATHER SERVICE GREAT FALLS MT
800 PM MDT SAT APR 22 2017

NOTE: "FAIR" INDICATES FEW OR NO CLOUDS BELOW 12000 FEET WITH NO
SIGNIFICANT WEATHER AND/OR OBSTRUCTIONS TO VISIBILITY.

MTZ001>007-043-230300-
WEST OF THE DIVIDE

CITY           SKY/WX    TMP DP  RH WIND       PRES   REMARKS
KALISPELL      CLOUDY    57  38  48 CALM      29.87F
MISSOULA       CLOUDY    61  33  35 N6        29.87S
BUTTE          CLOUDY    55  25  31 S12       29.93R
MULLAN PASS    CLOUDY    45  25  45 VRB5      29.93S
ANACONDA         N/A     57  21  24 S9        29.90S
DEER LODGE       N/A     57  30  35 CALM      29.91S
EUREKA           N/A     59  32  36 E5        29.86F
HAMILTON         N/A     61  27  27 SW5       29.87S
LIBBY            N/A     61  30  31 CALM      29.84F
RONAN            N/A     58  37  45 N3        29.94S
$$

MTZ008-052>055-230300-
SOUTHWEST MONTANA

CITY           SKY/WX    TMP DP  RH WIND       PRES   REMARKS
BOZEMAN        CLOUDY    56  32  40 VRB5      29.91S
DILLON         CLOUDY    53  26  35 SE13      29.92F
W YELLOWSTONE  CLOUDY    45  27  49 SW7       30.07S
ENNIS          CLEAR     52  25  35 S18G25    30.02S
THREE FORKS      N/A     58  58 100 S18       29.91F
TWIN BRIDGES     N/A     56  26  31 E14       29.93
$$

MTZ009-010-012-014-046-048-049-054-230300-
EAST SLOPES AND CENTRAL MONTANA

CITY           SKY/WX    TMP DP  RH WIND       PRES   REMARKS
CUT BANK       CLOUDY    52  34  50 SE9       29.89S
GREAT FALLS    CLOUDY    54  37  52 NE8       29.88F
MALMSTROM AFB  CLOUDY    53  41  62 NE7       29.88F
HELENA         PTCLDY    60  36  40 CALM      29.86S
AUGUSTA        MOCLDY    53  35  50 S5        29.89R
BOWMANS CRNR   MOCLDY    53  31  42 CALM      29.86S
CHOTEAU          N/A     54  34  47 SE7       29.90S
FAIRFIELD      MOCLDY    55  33  43 E7        29.87F
POWER            N/A     51  39  62 E8        29.88F
RAYNESFORD     MOCLDY    53  37  54 SW7       29.89F
ULM            MOCLDY    51  41  68 SE7       29.87F
$$

MTZ011-013-016-021-045-047-050-051-230300-
NORTH CENTRAL MONTANA

CITY           SKY/WX    TMP DP  RH WIND       PRES   REMARKS
HAVRE          PTCLDY    51  41  68 E21G35    29.95F
LEWISTOWN      CLEAR     52  36  54 SE7       29.92F
N BAR RANCH      N/A     48  36  61 CALM      29.98F
CHINOOK          N/A     52  39  62 E13G20    29.99R
DENTON           N/A     53  36  51 MISG      29.87F
FORT BENTON      N/A    N/A N/A N/A MISG      29.89S
GEYSER           N/A     54  36  51 NW3       29.88F
GRASS RANGE      N/A     52  35  52 S12       29.90S
JUDITH GAP       N/A     49  36  61 SE6       29.94F
STANFORD         N/A     52  35  53 CALM      29.90F
WINIFRED         N/A     52  39  61 E7        29.90F
$$

MTZ017>020-022>027-061-062-230300-
NORTHEAST MONTANA

CITY           SKY/WX    TMP DP  RH WIND       PRES   REMARKS
GLASGOW        CLOUDY    49  41  74 E15       30.02F
JORDAN           N/A     55  42  61 SE6       29.98F
SIDNEY         CLOUDY    48  38  68 E17       30.08S
WOLF POINT     CLOUDY    49  40  71 E17G24    30.05F
MALTA          CLOUDY    50  41  71 E14       30.00S
PLENTYWOOD       N/A     37  37 100 NE20      30.12S WCI  27
POPLAR           N/A     46  39  76 NE18      30.07F
SCOBEY           N/A     40  33  76 NE17      30.07
$$

MTZ028>42-056>058-230300-
SOUTHCENTRAL AND SOUTHEAST MONTANA

CITY           SKY/WX    TMP DP  RH WIND       PRES   REMARKS
BAKER          CLOUDY    55  41  59 NE5       30.04F
BILLINGS       CLOUDY    58  35  42 SE6       29.93F
LIVINGSTON     PTCLDY    54  37  52 S6        29.91F
MILES CITY     MOCLDY    57  39  51 SE3       29.99F
BIG TIMBER     CLEAR     52  39  62 E8        29.94F
LAUREL           N/A     57  34  42 CALM      29.93F
ROUNDUP          N/A     56  36  47 CALM      29.87S
$$

REGIONAL REPORTS...DAKOTAS

CITY           SKY/WX    TMP DP  RH WIND       PRES   REMARKS
WILLISTON      CLOUDY    42  34  73 NE12      30.13S
MINOT          CLOUDY    38  33  82 NE13      30.19R WCI  30
DICKINSON      PTCLDY    49  44  83 NE10      30.04S
BEACH          CLOUDY    50  43  76 NE9       30.07F
TIOGA          CLOUDY    36  36 100 E17G23    30.15F WCI  25
WATFORD CITY   CLOUDY    41  34  75 E16G23    30.10S
BISMARCK       PTCLDY    47  39  74 NE21      30.10R
GRAND FORKS    CLOUDY    37  28  70 N23       30.21R WCI  26
FARGO          CLOUDY    45  36  70 N23G33    30.11R
BUFFALO SD       N/A     58  40  51 SE5       29.97F
RAPID CITY     CLEAR     52  34  50 S8        30.04F
$$

REGIONAL REPORTS...WYOMING/IDAHO/WASHINGTON

CITY           SKY/WX    TMP DP  RH WIND       PRES   REMARKS
GILLETTE       CLEAR     50  37  61 S10       30.01F
SHERIDAN       CLEAR     47  40  76 W7        29.96F
BUFFALO WY     CLEAR     49  36  61 W5        30.00S
CODY           CLOUDY    50  37  61 SE9       29.98F
YELLOWSTONE LA   N/A     40  23  50 VRB5      30.11F
IDAHO FALLS    CLOUDY    55  29  36 SW12      30.02F
SALMON         CLOUDY    61  27  27 S3        29.88S
BOISE          MOCLDY    66  31  27 SE12      29.84F
SPOKANE        CLOUDY    56  40  55 S10       29.89S
$$

REGIONAL REPORTS...ALBERTA

CITY           SKY/WX    TMP DP  RH WIND       PRES   REMARKS
EDMONTON       CLOUDY    36  21  55 E14       30.16F WCI  27
CALGARY        LGT RAIN  45  36  70 SE12G18   29.95S
LETHBRIDGE     MOCLDY    52  39  62 E21G28    29.89F
MEDICINE HAT   CLOUDY    48  39  71 E16       29.98F
WATERTON GATE    N/A     52  25  35 SW9         N/A
CARDSTON         N/A     52  28  40 SW7         N/A
MILK RIVER       N/A     52  37  58 SE9         N/A
$$

REGIONAL REPORTS...SASKATCHEWAN

CITY           SKY/WX    TMP DP  RH WIND       PRES   REMARKS
SWIFT CURRENT  CLOUDY    43  34  70 E20G26    30.07S
REGINA         CLOUDY    39  28  65 E15G21    30.17F WCI  31
SASKATOON      MOCLDY    37  23  56 E10       30.23F WCI  30
CYPRESS HILLS    N/A     41  34  75 E6          N/A
VAL MARIE        N/A     45  39  81 E14         N/A
ASSINIBOIA       N/A     37  25  60 NE12        N/A  WCI  30
$$




USA.gov is the U.S. government's official web portal to all federal, state and local government web resources and services.